"read_dt","SO2 (ppb)","flags","PMT voltage (V)","lamp voltage (V)","lamp intensity (Hz)","internal temp (C)","react chamber temp (C)","sample flow (l/min)","pres (mmHg)","SO2 bkg (ppb)","SO2 coefficient"
2015-06-30 00:00:00,1650E-3,5C000000,-0724,0823,12280,030.3,045.5,0.470,725.9,01.19,0.508
2015-06-30 00:01:00,1628E-3,5C000000,-0723,0823,12146,030.3,045.5,0.470,725.9,01.19,0.508
2015-06-30 00:02:00,1786E-3,5C000000,-0724,0824,12362,030.3,045.5,0.470,725.9,01.19,0.508
2015-06-30 00:03:00,1647E-3,5C000000,-0724,0823,12138,030.3,045.5,0.469,725.9,01.19,0.508
2015-06-30 00:04:00,1727E-3,5C000000,-0724,0823,12308,030.3,045.5,0.470,725.9,01.19,0.508
2015-06-30 00:05:00,1803E-3,5C000000,-0723,0824,12302,030.3,045.5,0.470,725.9,01.19,0.508
2015-06-30 00:06:00,1629E-3,5C000000,-0723,0824,12275,030.3,045.5,0.470,726.0,01.19,0.508
2015-06-30 00:07:00,1641E-3,5C000000,-0723,0824,12364,030.3,045.5,0.469,726.0,01.19,0.508
2015-06-30 00:08:00,1780E-3,5C000000,-0724,0823,12310,030.3,045.5,0.469,725.9,01.19,0.508
2015-06-30 00:09:00,1614E-3,5C000000,-0723,0823,12301,030.3,045.5,0.470,726.0,01.19,0.508
2015-06-30 00:10:00,1741E-3,5C000000,-0723,0824,12275,030.3,045.5,0.470,725.9,01.19,0.508
2015-06-30 00:11:00,1721E-3,5C000000,-0723,0823,12295,030.4,045.5,0.469,725.9,01.19,0.508
2015-06-30 00:12:00,1783E-3,5C000000,-0723,0824,12430,030.4,045.5,0.469,725.9,01.19,0.508
2015-06-30 00:13:00,1859E-3,5C000000,-0724,0824,12265,030.4,045.5,0.470,725.9,01.19,0.508
2015-06-30 00:14:00,1871E-3,5C000000,-0723,0824,12164,030.4,045.5,0.470,725.9,01.19,0.508
2015-06-30 00:15:00,1837E-3,5C000000,-0723,0824,12305,030.4,045.5,0.469,725.9,01.19,0.508
2015-06-30 00:16:00,1712E-3,5C000000,-0723,0823,12273,030.4,045.5,0.469,725.9,01.19,0.508
2015-06-30 00:17:00,1743E-3,5C000000,-0723,0824,12249,030.4,045.5,0.470,725.9,01.19,0.508
2015-06-30 00:18:00,1587E-3,5C000000,-0723,0823,12188,030.4,045.5,0.470,725.9,01.19,0.508
2015-06-30 00:19:00,1802E-3,5C000000,-0723,0824,12265,030.4,045.5,0.469,725.9,01.19,0.508
2015-06-30 00:20:00,1695E-3,5C000000,-0723,0823,12233,030.4,045.5,0.469,725.9,01.19,0.508
2015-06-30 00:21:00,1760E-3,5C000000,-0723,0824,12308,030.4,045.5,0.470,725.9,01.19,0.508
2015-06-30 00:22:00,1761E-3,5C000000,-0723,0824,12354,030.4,045.5,0.470,725.9,01.19,0.508
2015-06-30 00:23:00,1732E-3,5C000000,-0723,0824,12123,030.4,045.5,0.469,725.9,01.19,0.508
2015-06-30 00:24:00,1806E-3,5C000000,-0723,0824,12304,030.4,045.5,0.469,725.9,01.19,0.508
2015-06-30 00:25:00,1778E-3,5C000000,-0723,0823,12322,030.4,045.5,0.470,725.9,01.19,0.508
2015-06-30 00:26:00,1672E-3,5C000000,-0723,0823,12455,030.5,045.5,0.469,725.9,01.19,0.508
2015-06-30 00:27:00,1559E-3,5C000000,-0723,0823,12338,030.5,045.5,0.469,725.9,01.19,0.508
2015-06-30 00:28:00,1806E-3,5C000000,-0723,0823,12153,030.4,045.5,0.469,725.9,01.19,0.508
2015-06-30 00:29:00,1685E-3,5C000000,-0723,0824,12182,030.5,045.5,0.470,725.9,01.19,0.508
2015-06-30 00:30:00,1656E-3,5C000000,-0723,0823,12399,030.5,045.5,0.469,725.9,01.19,0.508
2015-06-30 00:31:00,1750E-3,5C000000,-0723,0825,12448,030.5,045.5,0.469,725.9,01.19,0.508
2015-06-30 00:32:00,1788E-3,5C000000,-0723,0824,12249,030.5,045.5,0.469,725.9,01.19,0.508
2015-06-30 00:33:00,1768E-3,5C000000,-0723,0824,12296,030.5,045.5,0.470,726.0,01.19,0.508
2015-06-30 00:34:00,1774E-3,5C000000,-0723,0824,12286,030.5,045.5,0.469,726.0,01.19,0.508
2015-06-30 00:35:00,1737E-3,5C000000,-0723,0824,12178,030.5,045.5,0.469,725.9,01.19,0.508
2015-06-30 00:36:00,1809E-3,5C000000,-0723,0823,12265,030.5,045.5,0.469,725.9,01.19,0.508
2015-06-30 00:37:00,1637E-3,5C000000,-0723,0824,12259,030.5,045.5,0.470,726.0,01.19,0.508
2015-06-30 00:38:00,1759E-3,5C000000,-0723,0824,12150,030.5,045.5,0.469,725.9,01.19,0.508
2015-06-30 00:39:00,1784E-3,5C000000,-0723,0823,12238,030.5,045.5,0.469,725.9,01.19,0.508
2015-06-30 00:40:00,1628E-3,5C000000,-0723,0823,12244,030.5,045.5,0.470,725.9,01.19,0.508
2015-06-30 00:41:00,1714E-3,5C000000,-0723,0823,12152,030.5,045.5,0.469,726.0,01.19,0.508
2015-06-30 00:42:00,1694E-3,5C000000,-0723,0823,12254,030.5,045.5,0.469,725.9,01.19,0.508
2015-06-30 00:43:00,1758E-3,5C000000,-0723,0823,12221,030.6,045.5,0.469,725.9,01.19,0.508
2015-06-30 00:44:00,1729E-3,5C000000,-0723,0824,12320,030.6,045.5,0.470,725.9,01.19,0.508
2015-06-30 00:45:00,1724E-3,5C000000,-0723,0823,12339,030.6,045.5,0.469,725.9,01.19,0.508
2015-06-30 00:46:00,1736E-3,5C000000,-0723,0823,12310,030.6,045.5,0.469,725.9,01.19,0.508
2015-06-30 00:47:00,1878E-3,5C000000,-0723,0823,12320,030.6,045.5,0.469,725.9,01.19,0.508
2015-06-30 00:48:00,1603E-3,5C000000,-0723,0823,12255,030.6,045.5,0.469,725.9,01.19,0.508
2015-06-30 00:49:00,1814E-3,5C000000,-0723,0823,12316,030.6,045.5,0.469,725.9,01.19,0.508
2015-06-30 00:50:00,1823E-3,5C000000,-0723,0823,12247,030.6,045.5,0.469,725.9,01.19,0.508
2015-06-30 00:51:00,1764E-3,5C000000,-0723,0823,12135,030.6,045.5,0.469,725.9,01.19,0.508
2015-06-30 00:52:00,1741E-3,5C000000,-0723,0823,12282,030.6,045.5,0.469,725.9,01.19,0.508
2015-06-30 00:53:00,1769E-3,5C000000,-0723,0823,12286,030.6,045.5,0.469,725.9,01.19,0.508
2015-06-30 00:54:00,1853E-3,5C000000,-0723,0824,12344,030.6,045.5,0.469,725.9,01.19,0.508
2015-06-30 00:55:00,1620E-3,5C000000,-0723,0823,12228,030.6,045.5,0.469,725.9,01.19,0.508
2015-06-30 00:56:00,1684E-3,5C000000,-0723,0824,12368,030.6,045.5,0.469,725.9,01.19,0.508
2015-06-30 00:57:00,1773E-3,5C000000,-0723,0823,12284,030.6,045.5,0.469,725.8,01.19,0.508
2015-06-30 00:58:00,1636E-3,5C000000,-0723,0823,12329,030.6,045.5,0.469,725.8,01.19,0.508
2015-06-30 00:59:00,1805E-3,5C000000,-0723,0824,12243,030.6,045.5,0.469,725.8,01.19,0.508
2015-06-30 01:00:00,1827E-3,5C000000,-0723,0823,12346,030.6,045.5,0.469,725.8,01.19,0.508
2015-06-30 01:01:00,1714E-3,5C000000,-0723,0823,12144,030.6,045.5,0.469,725.8,01.19,0.508
2015-06-30 01:02:00,1769E-3,5C000000,-0723,0823,12180,030.7,045.5,0.469,725.8,01.19,0.508
2015-06-30 01:03:00,1872E-3,5C000000,-0723,0823,12198,030.7,045.5,0.469,725.9,01.19,0.508
2015-06-30 01:04:00,1720E-3,5C000000,-0723,0822,12260,030.7,045.5,0.469,725.8,01.19,0.508
2015-06-30 01:05:00,1746E-3,5C000000,-0723,0823,12297,030.7,045.5,0.469,725.8,01.19,0.508
2015-06-30 01:06:00,1769E-3,5C000000,-0723,0824,12203,030.7,045.5,0.469,725.8,01.19,0.508
2015-06-30 01:07:00,1776E-3,5C000000,-0723,0824,12202,030.7,045.5,0.469,725.8,01.19,0.508
2015-06-30 01:08:00,1744E-3,5C000000,-0723,0823,12258,030.7,045.5,0.469,725.8,01.19,0.508
2015-06-30 01:09:00,1731E-3,5C000000,-0723,0824,12265,030.7,045.6,0.469,725.8,01.19,0.508
2015-06-30 01:10:00,1796E-3,5C000000,-0723,0825,12219,030.7,045.5,0.469,725.8,01.19,0.508
2015-06-30 01:11:00,1808E-3,5C000000,-0723,0824,12180,030.7,045.5,0.469,725.8,01.19,0.508
2015-06-30 01:12:00,1895E-3,5C000000,-0723,0824,12081,030.8,045.5,0.469,725.8,01.19,0.508
2015-06-30 01:13:00,1696E-3,5C000000,-0723,0823,12256,030.7,045.5,0.469,725.8,01.19,0.508
2015-06-30 01:14:00,1764E-3,5C000000,-0723,0823,12312,030.7,045.5,0.469,725.7,01.19,0.508
2015-06-30 01:15:00,1744E-3,5C000000,-0723,0822,12030,030.8,045.5,0.469,725.8,01.19,0.508
2015-06-30 01:16:00,1785E-3,5C000000,-0723,0823,12301,030.8,045.5,0.469,725.8,01.19,0.508
2015-06-30 01:17:00,1786E-3,5C000000,-0723,0823,12283,030.8,045.5,0.469,725.8,01.19,0.508
2015-06-30 01:18:00,1730E-3,5C000000,-0723,0823,12354,030.8,045.5,0.469,725.8,01.19,0.508
2015-06-30 01:19:00,1804E-3,5C000000,-0723,0823,12080,030.8,045.5,0.469,725.8,01.19,0.508
2015-06-30 01:20:00,1845E-3,5C000000,-0723,0823,12220,030.8,045.5,0.469,725.8,01.19,0.508
2015-06-30 01:21:00,1758E-3,5C000000,-0723,0823,12341,030.8,045.5,0.469,725.8,01.19,0.508
2015-06-30 01:22:00,1742E-3,5C000000,-0723,0823,12219,030.8,045.5,0.469,725.8,01.19,0.508
2015-06-30 01:23:00,1826E-3,5C000000,-0723,0823,12248,030.8,045.5,0.469,725.9,01.19,0.508
2015-06-30 01:24:00,1914E-3,5C000000,-0723,0823,12197,030.8,045.6,0.469,725.9,01.19,0.508
2015-06-30 01:25:00,1673E-3,5C000000,-0723,0823,12206,030.8,045.5,0.469,725.9,01.19,0.508
2015-06-30 01:26:00,1785E-3,5C000000,-0723,0822,12228,030.8,045.5,0.469,725.9,01.19,0.508
2015-06-30 01:27:00,1788E-3,5C000000,-0723,0822,12266,030.8,045.5,0.469,725.9,01.19,0.508
2015-06-30 01:28:00,1858E-3,5C000000,-0723,0823,12387,030.8,045.5,0.469,725.9,01.19,0.508
2015-06-30 01:29:00,1587E-3,5C000000,-0723,0823,12332,030.9,045.5,0.469,725.9,01.19,0.508
2015-06-30 01:30:00,1717E-3,5C000000,-0723,0823,12164,030.9,045.5,0.469,725.9,01.19,0.508
2015-06-30 01:31:00,1742E-3,5C000000,-0723,0823,12303,030.9,045.5,0.469,725.9,01.19,0.508
2015-06-30 01:32:00,1762E-3,5C000000,-0723,0823,11982,030.9,045.5,0.469,725.9,01.19,0.508
2015-06-30 01:33:00,1699E-3,5C000000,-0723,0823,12345,030.9,045.5,0.469,725.9,01.19,0.508
2015-06-30 01:34:00,1570E-3,5C000000,-0723,0823,12159,030.9,045.5,0.469,725.9,01.19,0.508
2015-06-30 01:35:00,1805E-3,5C000000,-0723,0822,12365,030.9,045.5,0.469,725.9,01.19,0.508
2015-06-30 01:36:00,1759E-3,5C000000,-0723,0823,12106,030.9,045.6,0.469,725.9,01.19,0.508
2015-06-30 01:37:00,1703E-3,5C000000,-0723,0823,12087,030.9,045.5,0.469,725.9,01.19,0.508
2015-06-30 01:38:00,1830E-3,5C000000,-0723,0824,12006,031.0,045.5,0.468,725.8,01.19,0.508
2015-06-30 01:39:00,1855E-3,5C000000,-0723,0823,12188,030.9,045.5,0.469,725.8,01.19,0.508
2015-06-30 01:40:00,1809E-3,5C000000,-0723,0823,12292,030.9,045.6,0.469,725.9,01.19,0.508
2015-06-30 01:41:00,1749E-3,5C000000,-0723,0823,12351,030.9,045.6,0.468,725.8,01.19,0.508
2015-06-30 01:42:00,1776E-3,5C000000,-0723,0824,12189,031.0,045.5,0.469,725.9,01.19,0.508
2015-06-30 01:43:00,1677E-3,5C000000,-0723,0824,12346,030.9,045.5,0.468,725.8,01.19,0.508
2015-06-30 01:44:00,1737E-3,5C000000,-0723,0823,12214,031.0,045.5,0.469,725.9,01.19,0.508
2015-06-30 01:45:00,1662E-3,5C000000,-0723,0823,12199,031.0,045.5,0.468,725.9,01.19,0.508
2015-06-30 01:46:00,1809E-3,5C000000,-0723,0822,12338,031.0,045.6,0.469,725.9,01.19,0.508
2015-06-30 01:47:00,1699E-3,5C000000,-0723,0823,12264,031.0,045.6,0.468,725.9,01.19,0.508
2015-06-30 01:48:00,1751E-3,5C000000,-0723,0823,12271,031.0,045.6,0.469,725.9,01.19,0.508
2015-06-30 01:49:00,1741E-3,5C000000,-0723,0822,12314,031.0,045.6,0.469,725.9,01.19,0.508
2015-06-30 01:50:00,1819E-3,5C000000,-0723,0823,12121,031.0,045.5,0.469,725.9,01.19,0.508
2015-06-30 01:51:00,1641E-3,5C000000,-0723,0824,12114,031.0,045.6,0.469,725.9,01.19,0.508
2015-06-30 01:52:00,1795E-3,5C000000,-0723,0823,12257,031.0,045.6,0.468,725.8,01.19,0.508
2015-06-30 01:53:00,1728E-3,5C000000,-0723,0823,12204,031.0,045.6,0.469,725.9,01.19,0.508
2015-06-30 01:54:00,1754E-3,5C000000,-0723,0824,12289,031.0,045.5,0.468,725.8,01.19,0.508
2015-06-30 01:55:00,1821E-3,5C000000,-0723,0823,12208,031.1,045.5,0.469,725.9,01.19,0.508
2015-06-30 01:56:00,1779E-3,5C000000,-0723,0823,12197,031.1,045.5,0.468,725.9,01.19,0.508
2015-06-30 01:57:00,1819E-3,5C000000,-0723,0823,12219,031.1,045.5,0.469,725.8,01.19,0.508
2015-06-30 01:58:00,1687E-3,5C000000,-0723,0824,12320,031.1,045.6,0.468,725.8,01.19,0.508
2015-06-30 01:59:00,1637E-3,5C000000,-0723,0824,12260,031.1,045.5,0.469,725.7,01.19,0.508
2015-06-30 02:00:00,1613E-3,5C000000,-0723,0824,12223,031.1,045.5,0.468,725.7,01.19,0.508
2015-06-30 02:01:00,1703E-3,5C000000,-0723,0823,12310,031.1,045.5,0.468,725.6,01.19,0.508
2015-06-30 02:02:00,1697E-3,5C000000,-0723,0823,12155,031.1,045.6,0.468,725.6,01.19,0.508
2015-06-30 02:03:00,1759E-3,5C000000,-0723,0824,12271,031.1,045.5,0.468,725.6,01.19,0.508
2015-06-30 02:04:00,1780E-3,5C000000,-0723,0824,12166,031.1,045.5,0.468,725.7,01.19,0.508
2015-06-30 02:05:00,1701E-3,5C000000,-0723,0824,12332,031.1,045.5,0.468,725.6,01.19,0.508
2015-06-30 02:06:00,1662E-3,5C000000,-0723,0824,12414,031.1,045.5,0.468,725.6,01.19,0.508
2015-06-30 02:07:00,1721E-3,5C000000,-0723,0824,12158,031.1,045.6,0.468,725.7,01.19,0.508
2015-06-30 02:08:00,1728E-3,5C000000,-0723,0823,12199,031.1,045.5,0.469,725.7,01.19,0.508
2015-06-30 02:09:00,1638E-3,5C000000,-0723,0824,12181,031.1,045.6,0.468,725.7,01.19,0.508
2015-06-30 02:10:00,1685E-3,5C000000,-0723,0823,12185,031.2,045.5,0.468,725.5,01.19,0.508
2015-06-30 02:11:00,1784E-3,5C000000,-0723,0824,12333,031.2,045.5,0.468,725.5,01.19,0.508
2015-06-30 02:12:00,1864E-3,5C000000,-0723,0823,12425,031.2,045.5,0.468,725.6,01.19,0.508
2015-06-30 02:13:00,1710E-3,5C000000,-0723,0823,12137,031.2,045.5,0.468,725.6,01.19,0.508
2015-06-30 02:14:00,1664E-3,5C000000,-0723,0824,12242,031.2,045.6,0.468,725.6,01.19,0.508
2015-06-30 02:15:00,1858E-3,5C000000,-0723,0823,12317,031.2,045.5,0.468,725.6,01.19,0.508
2015-06-30 02:16:00,1706E-3,5C000000,-0723,0824,12228,031.2,045.6,0.468,725.7,01.19,0.508
2015-06-30 02:17:00,1713E-3,5C000000,-0723,0823,12352,031.2,045.6,0.468,725.6,01.19,0.508
2015-06-30 02:18:00,1837E-3,5C000000,-0723,0824,12276,031.2,045.6,0.468,725.6,01.19,0.508
2015-06-30 02:19:00,1747E-3,5C000000,-0723,0824,12258,031.2,045.6,0.468,725.7,01.19,0.508
2015-06-30 02:20:00,1797E-3,5C000000,-0723,0823,12125,031.2,045.5,0.468,725.7,01.19,0.508
2015-06-30 02:21:00,1674E-3,5C000000,-0723,0824,12328,031.2,045.5,0.468,725.7,01.19,0.508
2015-06-30 02:22:00,1836E-3,5C000000,-0723,0824,12305,031.2,045.6,0.468,725.8,01.19,0.508
2015-06-30 02:23:00,1645E-3,5C000000,-0723,0823,12200,031.3,045.6,0.468,725.6,01.19,0.508
2015-06-30 02:24:00,1658E-3,5C000000,-0723,0823,12068,031.3,045.6,0.468,725.7,01.19,0.508
2015-06-30 02:25:00,1721E-3,5C000000,-0723,0824,12356,031.3,045.6,0.468,725.7,01.19,0.508
2015-06-30 02:26:00,1758E-3,5C000000,-0723,0823,12246,031.3,045.6,0.468,725.7,01.19,0.508
2015-06-30 02:27:00,1808E-3,5C000000,-0723,0824,12175,031.3,045.6,0.468,725.8,01.19,0.508
2015-06-30 02:28:00,1706E-3,5C000000,-0723,0823,12222,031.3,045.6,0.468,725.6,01.19,0.508
2015-06-30 02:29:00,1750E-3,5C000000,-0723,0824,12126,031.3,045.5,0.468,725.7,01.19,0.508
2015-06-30 02:30:00,1788E-3,5C000000,-0723,0823,12216,031.3,045.5,0.468,725.6,01.19,0.508
2015-06-30 02:31:00,1761E-3,5C000000,-0723,0824,12371,031.3,045.5,0.468,725.6,01.19,0.508
2015-06-30 02:32:00,1850E-3,5C000000,-0723,0823,12097,031.3,045.6,0.468,725.7,01.19,0.508
2015-06-30 02:33:00,1734E-3,5C000000,-0723,0824,12460,031.3,045.5,0.468,725.6,01.19,0.508
2015-06-30 02:34:00,1694E-3,5C000000,-0723,0823,12292,031.3,045.6,0.468,725.6,01.19,0.508
2015-06-30 02:35:00,1742E-3,5C000000,-0723,0824,12353,031.3,045.6,0.468,725.6,01.19,0.508
2015-06-30 02:36:00,1751E-3,5C000000,-0723,0823,12196,031.4,045.6,0.468,725.6,01.19,0.508
2015-06-30 02:37:00,1681E-3,5C000000,-0723,0824,12231,031.3,045.6,0.468,725.7,01.19,0.508
2015-06-30 02:38:00,1766E-3,5C000000,-0723,0824,12037,031.4,045.5,0.468,725.7,01.19,0.508
2015-06-30 02:39:00,1825E-3,5C000000,-0723,0823,12371,031.4,045.6,0.468,725.7,01.19,0.508
2015-06-30 02:40:00,1787E-3,5C000000,-0723,0824,12217,031.4,045.6,0.468,725.6,01.19,0.508
2015-06-30 02:41:00,1750E-3,5C000000,-0723,0824,12210,031.4,045.5,0.468,725.7,01.19,0.508
2015-06-30 02:42:00,1620E-3,5C000000,-0723,0823,12221,031.4,045.6,0.468,725.6,01.19,0.508
2015-06-30 02:43:00,1645E-3,5C000000,-0723,0824,12251,031.4,045.6,0.468,725.7,01.19,0.508
2015-06-30 02:44:00,1729E-3,5C000000,-0723,0824,12166,031.4,045.6,0.468,725.7,01.19,0.508
2015-06-30 02:45:00,1677E-3,5C000000,-0723,0824,12284,031.4,045.6,0.468,725.6,01.19,0.508
2015-06-30 02:46:00,1733E-3,5C000000,-0723,0824,12251,031.4,045.6,0.468,725.6,01.19,0.508
2015-06-30 02:47:00,1795E-3,5C000000,-0723,0823,12189,031.4,045.6,0.468,725.7,01.19,0.508
2015-06-30 02:48:00,1720E-3,5C000000,-0723,0824,12238,031.4,045.6,0.468,725.7,01.19,0.508
2015-06-30 02:49:00,1799E-3,5C000000,-0723,0823,12333,031.4,045.6,0.468,725.7,01.19,0.508
2015-06-30 02:50:00,1874E-3,5C000000,-0723,0825,12297,031.5,045.6,0.468,725.7,01.19,0.508
2015-06-30 02:51:00,1785E-3,5C000000,-0723,0825,12370,031.5,045.6,0.468,725.7,01.19,0.508
2015-06-30 02:52:00,1740E-3,5C000000,-0723,0823,12331,031.5,045.6,0.468,725.7,01.19,0.508
2015-06-30 02:53:00,1735E-3,5C000000,-0723,0823,12222,031.5,045.5,0.468,725.6,01.19,0.508
2015-06-30 02:54:00,1641E-3,5C000000,-0723,0824,12280,031.5,045.5,0.468,725.6,01.19,0.508
2015-06-30 02:55:00,1749E-3,5C000000,-0723,0822,12275,031.5,045.6,0.468,725.6,01.19,0.508
2015-06-30 02:56:00,1790E-3,5C000000,-0723,0823,12174,031.5,045.6,0.468,725.6,01.19,0.508
2015-06-30 02:57:00,1784E-3,5C000000,-0723,0823,12193,031.5,045.6,0.468,725.7,01.19,0.508
2015-06-30 02:58:00,1712E-3,5C000000,-0723,0825,12293,031.5,045.6,0.468,725.6,01.19,0.508
2015-06-30 02:59:00,1631E-3,5C000000,-0723,0823,12262,031.5,045.6,0.468,725.8,01.19,0.508
2015-06-30 03:00:00,1866E-3,5C000000,-0723,0823,12107,031.6,045.6,0.468,725.8,01.19,0.508
2015-06-30 03:01:00,1757E-3,5C000000,-0723,0824,12083,031.6,045.6,0.467,725.7,01.19,0.508
2015-06-30 03:02:00,1788E-3,5C000000,-0723,0824,12396,031.6,045.6,0.468,725.8,01.19,0.508
2015-06-30 03:03:00,1550E-3,5C000000,-0723,0824,12325,031.6,045.6,0.467,725.8,01.19,0.508
2015-06-30 03:04:00,1767E-3,5C000000,-0723,0823,12197,031.6,045.6,0.468,725.9,01.19,0.508
2015-06-30 03:05:00,1719E-3,5C000000,-0723,0823,12156,031.6,045.6,0.467,725.9,01.19,0.508
2015-06-30 03:06:00,1728E-3,5C000000,-0723,0823,12190,031.6,045.6,0.468,725.8,01.19,0.508
2015-06-30 03:07:00,1869E-3,5C000000,-0723,0822,12143,031.6,045.6,0.467,725.9,01.19,0.508
2015-06-30 03:08:00,1564E-3,5C000000,-0723,0822,12085,031.6,045.6,0.468,725.9,01.19,0.508
2015-06-30 03:09:00,1754E-3,5C000000,-0723,0823,12206,031.6,045.6,0.468,725.9,01.19,0.508
2015-06-30 03:10:00,1748E-3,5C000000,-0723,0824,12211,031.6,045.6,0.468,725.9,01.19,0.508
2015-06-30 03:11:00,1743E-3,5C000000,-0723,0824,12208,031.6,045.6,0.468,725.9,01.19,0.508
2015-06-30 03:12:00,1833E-3,5C000000,-0723,0824,12286,031.6,045.6,0.467,725.9,01.19,0.508
2015-06-30 03:13:00,1730E-3,5C000000,-0723,0823,12032,031.7,045.6,0.468,725.9,01.19,0.508
2015-06-30 03:14:00,1798E-3,5C000000,-0723,0824,12312,031.7,045.5,0.467,725.9,01.19,0.508
2015-06-30 03:15:00,1585E-3,5C000000,-0723,0823,12305,031.7,045.6,0.468,726.0,01.19,0.508
2015-06-30 03:16:00,1712E-3,5C000000,-0723,0823,12237,031.7,045.6,0.467,725.9,01.19,0.508
2015-06-30 03:17:00,1753E-3,5C000000,-0723,0823,12147,031.7,045.6,0.468,725.9,01.19,0.508
2015-06-30 03:18:00,1755E-3,5C000000,-0723,0823,12037,031.7,045.6,0.467,725.9,01.19,0.508
2015-06-30 03:19:00,1637E-3,5C000000,-0723,0824,12312,031.7,045.6,0.468,725.8,01.19,0.508
2015-06-30 03:20:00,1777E-3,5C000000,-0723,0824,12280,031.7,045.6,0.467,725.9,01.19,0.508
2015-06-30 03:21:00,1766E-3,5C000000,-0723,0823,12337,031.7,045.6,0.468,725.9,01.19,0.508
2015-06-30 03:22:00,1694E-3,5C000000,-0723,0823,12234,031.8,045.6,0.468,725.9,01.19,0.508
2015-06-30 03:23:00,1798E-3,5C000000,-0723,0824,12059,031.7,045.6,0.467,725.9,01.19,0.508
2015-06-30 03:24:00,1753E-3,5C000000,-0723,0824,12156,031.7,045.6,0.468,726.0,01.19,0.508
2015-06-30 03:25:00,1718E-3,5C000000,-0723,0823,12277,031.8,045.6,0.467,725.9,01.19,0.508
2015-06-30 03:26:00,1802E-3,5C000000,-0723,0823,12288,031.8,045.6,0.468,725.9,01.19,0.508
2015-06-30 03:27:00,1745E-3,5C000000,-0723,0823,12246,031.8,045.6,0.467,726.0,01.19,0.508
2015-06-30 03:28:00,1771E-3,5C000000,-0723,0823,12164,031.8,045.6,0.468,725.9,01.19,0.508
2015-06-30 03:29:00,1803E-3,5C000000,-0723,0823,12129,031.8,045.6,0.467,725.9,01.19,0.508
2015-06-30 03:30:00,1630E-3,5C000000,-0723,0824,12211,031.8,045.6,0.467,725.9,01.19,0.508
2015-06-30 03:31:00,1785E-3,5C000000,-0723,0822,12203,031.8,045.6,0.467,725.9,01.19,0.508
2015-06-30 03:32:00,1636E-3,5C000000,-0723,0824,12074,031.8,045.6,0.467,725.9,01.19,0.508
2015-06-30 03:33:00,1752E-3,5C000000,-0723,0823,12135,031.8,045.6,0.468,725.8,01.19,0.508
2015-06-30 03:34:00,1689E-3,5C000000,-0723,0823,12193,031.8,045.6,0.467,726.0,01.19,0.508
2015-06-30 03:35:00,1728E-3,5C000000,-0723,0823,12302,031.8,045.6,0.468,726.0,01.19,0.508
2015-06-30 03:36:00,1680E-3,5C000000,-0723,0823,12368,031.8,045.6,0.467,726.0,01.19,0.508
2015-06-30 03:37:00,1780E-3,5C000000,-0723,0823,12185,031.8,045.6,0.468,726.0,01.19,0.508
2015-06-30 03:38:00,1615E-3,5C000000,-0723,0825,12134,031.9,045.6,0.467,726.0,01.19,0.508
2015-06-30 03:39:00,1736E-3,5C000000,-0723,0824,12237,031.9,045.6,0.467,726.0,01.19,0.508
2015-06-30 03:40:00,1855E-3,5C000000,-0723,0823,12264,031.9,045.6,0.468,726.0,01.19,0.508
2015-06-30 03:41:00,1720E-3,5C000000,-0723,0823,12293,031.9,045.6,0.467,726.0,01.19,0.508
2015-06-30 03:42:00,1720E-3,5C000000,-0723,0823,12131,031.9,045.6,0.468,726.0,01.19,0.508
2015-06-30 03:43:00,1712E-3,5C000000,-0723,0825,12232,031.9,045.6,0.467,726.0,01.19,0.508
2015-06-30 03:44:00,1734E-3,5C000000,-0723,0824,12257,031.9,045.6,0.467,726.0,01.19,0.508
2015-06-30 03:45:00,1760E-3,5C000000,-0723,0823,12167,031.9,045.6,0.467,726.0,01.19,0.508
2015-06-30 03:46:00,1719E-3,5C000000,-0723,0823,12195,031.9,045.6,0.467,726.0,01.19,0.508
2015-06-30 03:47:00,1728E-3,5C000000,-0723,0824,12413,031.9,045.6,0.468,726.0,01.19,0.508
2015-06-30 03:48:00,1664E-3,5C000000,-0723,0824,12262,031.9,045.6,0.467,726.0,01.19,0.508
2015-06-30 03:49:00,1743E-3,5C000000,-0723,0824,12229,031.9,045.6,0.467,725.9,01.19,0.508
2015-06-30 03:50:00,1749E-3,5C000000,-0723,0824,12249,031.9,045.6,0.467,726.0,01.19,0.508
2015-06-30 03:51:00,1843E-3,5C000000,-0723,0824,12249,031.9,045.6,0.467,726.0,01.19,0.508
2015-06-30 03:52:00,1709E-3,5C000000,-0723,0823,12414,031.9,045.6,0.467,726.0,01.19,0.508
2015-06-30 03:53:00,1717E-3,5C000000,-0723,0823,12457,031.9,045.6,0.467,726.0,01.19,0.508
2015-06-30 03:54:00,1633E-3,5C000000,-0723,0823,12160,031.9,045.6,0.468,726.0,01.19,0.508
2015-06-30 03:55:00,1698E-3,5C000000,-0723,0822,12251,031.9,045.6,0.467,726.1,01.19,0.508
2015-06-30 03:56:00,1710E-3,5C000000,-0723,0823,12126,032.0,045.6,0.467,726.0,01.19,0.508
2015-06-30 03:57:00,1685E-3,5C000000,-0723,0824,12312,032.0,045.6,0.467,726.0,01.19,0.508
2015-06-30 03:58:00,1649E-3,5C000000,-0723,0822,12222,032.0,045.6,0.467,726.0,01.19,0.508
2015-06-30 03:59:00,1760E-3,5C000000,-0723,0823,12348,032.0,045.6,0.468,726.0,01.19,0.508
2015-06-30 04:00:00,1784E-3,5C000000,-0723,0823,12329,032.0,045.6,0.467,726.1,01.19,0.508
2015-06-30 04:01:00,1608E-3,5C000000,-0723,0823,12365,032.0,045.6,0.467,726.0,01.19,0.508
2015-06-30 04:02:00,1853E-3,5C000000,-0723,0824,12373,032.0,045.6,0.467,726.0,01.19,0.508
2015-06-30 04:03:00,1668E-3,5C000000,-0723,0823,12307,032.0,045.6,0.467,726.0,01.19,0.508
2015-06-30 04:04:00,1758E-3,5C000000,-0723,0824,12243,032.0,045.6,0.467,726.0,01.19,0.508
2015-06-30 04:05:00,1815E-3,5C000000,-0723,0823,12138,032.0,045.6,0.467,726.0,01.19,0.508
2015-06-30 04:06:00,1619E-3,5C000000,-0723,0823,12343,032.0,045.6,0.467,726.0,01.19,0.508
2015-06-30 04:07:00,1687E-3,5C000000,-0723,0822,12374,032.0,045.6,0.467,726.0,01.19,0.508
2015-06-30 04:08:00,1896E-3,5C000000,-0723,0822,12284,032.0,045.6,0.467,726.0,01.19,0.508
2015-06-30 04:09:00,1697E-3,5C000000,-0723,0822,12093,032.0,045.6,0.467,726.0,01.19,0.508
2015-06-30 04:10:00,1737E-3,5C000000,-0723,0824,12200,032.0,045.6,0.467,726.0,01.19,0.508
2015-06-30 04:11:00,1790E-3,5C000000,-0723,0823,12373,032.0,045.6,0.467,726.0,01.19,0.508
2015-06-30 04:12:00,1709E-3,5C000000,-0723,0824,12269,032.0,045.6,0.467,726.0,01.19,0.508
2015-06-30 04:13:00,1748E-3,5C000000,-0723,0822,12318,032.1,045.6,0.467,725.9,01.19,0.508
2015-06-30 04:14:00,1664E-3,5C000000,-0723,0823,12466,032.1,045.6,0.467,725.9,01.19,0.508
2015-06-30 04:15:00,1707E-3,5C000000,-0723,0823,12192,032.1,045.6,0.467,726.0,01.19,0.508
2015-06-30 04:16:00,1710E-3,5C000000,-0723,0823,12340,032.1,045.6,0.467,725.9,01.19,0.508
2015-06-30 04:17:00,1755E-3,5C000000,-0723,0823,12345,032.1,045.6,0.467,725.9,01.19,0.508
2015-06-30 04:18:00,1724E-3,5C000000,-0723,0823,12304,032.1,045.6,0.467,725.9,01.19,0.508
2015-06-30 04:19:00,1828E-3,5C000000,-0723,0823,12288,032.1,045.6,0.467,725.9,01.19,0.508
2015-06-30 04:20:00,1781E-3,5C000000,-0723,0824,12264,032.1,045.6,0.467,725.9,01.19,0.508